Regional Weather Roundup
Issued by NWS

Home | Current Version | Previous Version | Graphics & Text | Print | Product List | Glossary On
Versions: 1 2 3 4 5 6 7 8 9 10 11 12 13 14 15 16 17 18 19 20 21 22 23 24 25 26 27 28 29 30 31 32 33 34 35 36 37 38 39 40 41 42 43 44 45 46 47 48 49 50
000
ASUS43 KDTX 281210
RWRMI
MICHIGAN HOURLY REGIONAL WEATHER ROUNDUP
NATIONAL WEATHER SERVICE DETROIT/PONTIAC MI
800 AM EDT THU JUL 28 2016

NOTE: "FAIR" INDICATES FEW OR NO CLOUDS BELOW 12,000 FEET WITH NO
SIGNIFICANT WEATHER AND/OR OBSTRUCTION TO VISIBILITY.

MIZ047>049-052>055-059>063-066>070-074>076-081>083-281300-
SOUTHEAST LOWER MICHIGAN

CITY           SKY/WX    TMP DP  RH WIND       PRES   REMARKS
ADRIAN         CLOUDY    68  66  93 N6        29.95R
6HR MIN TEMP:  64; 6HR MAX TEMP:  68;

ALMA           PTSUNNY   67  67 100 N5        29.97R
ANN ARBOR      MOSUNNY   69  66  90 CALM      29.94R
BAD AXE        SUNNY     67  67 100 NE5       29.98R
CARO           MOSUNNY   68  66  94 CALM      29.97R
DETROIT CITY   CLOUDY    71  65  81 N5        29.94R
6HR MIN TEMP:  69; 6HR MAX TEMP:  75;

DETROIT        CLOUDY    73  64  73 N3        29.94R
6HR MIN TEMP:  71; 6HR MAX TEMP:  74;

FLINT          MOSUNNY   71  63  75 E6        29.97R
6HR MIN TEMP:  62; 6HR MAX TEMP:  71;

GROSSE ILE     CLOUDY    73  67  83 NE6       29.92S
6HR MIN TEMP:  71; 6HR MAX TEMP:  73;

HILLSDALE      CLOUDY    66  64  91 CALM      29.95S
6HR MIN TEMP:  59; 6HR MAX TEMP:  87;

HOWELL         MOSUNNY   65  64  97 CALM      29.97R
6HR MIN TEMP:  63; 6HR MAX TEMP:  66;


CITY           SKY/WX    TMP DP  RH WIND       PRES   REMARKS
JACKSON        PTSUNNY   68  65  90 NE6       29.96R
6HR MIN TEMP:  60; 6HR MAX TEMP:  68;

LAMBERTVILLE   CLOUDY    71  67  87 CALM      29.93S
6HR MIN TEMP:  66; 6HR MAX TEMP:  71;

LANSING        MOSUNNY   67  63  87 CALM      29.97R
6HR MIN TEMP:  63; 6HR MAX TEMP:  67;

LAPEER         CLOUDY    65  63  93 CALM      29.97R
6HR MIN TEMP:  59; 6HR MAX TEMP:  65;

MASON          CLOUDY    65  63  93 CALM      29.96S
MONROE         PTSUNNY   69  67  96 N12       29.92S
6HR MIN TEMP:  65; 6HR MAX TEMP:  69;

MT. CLEMENS    PTSUNNY   70  66  88 N6        29.92R
6HR MIN TEMP:  65; 6HR MAX TEMP:  70;

PONTIAC        PTSUNNY   69  64  84 NE5       29.95R
6HR MIN TEMP:  66; 6HR MAX TEMP:  70;

PORT HOPE        N/A     73  64  73 N12       29.96R
6HR MIN TEMP:  65; 6HR MAX TEMP:  73;

PORT HURON     PTSUNNY   66  66 100 CALM      29.95R
TRI CITIES     PTSUNNY   68  68 100 N6        29.97R
6HR MIN TEMP:  63; 6HR MAX TEMP:  68;

MIDLAND        CLOUDY    67  67 100 N5        29.97R
6HR MIN TEMP:  63; 6HR MAX TEMP:  67;

TROY           PTSUNNY   72  64  75 NE8       29.97R
SAGINAW HB     CLOUDY    64  63  94 CALM      29.96R FOG
$$
MIZ043>046-050>051-056>058-064>065-071>073-077>080-281300-
SOUTHWEST LOWER MICHIGAN

CITY           SKY/WX    TMP DP  RH WIND       PRES   REMARKS
BATTLE CREEK   PTSUNNY   66  65  96 CALM      29.96R
6HR MIN TEMP:  63; 6HR MAX TEMP:  67;

BENTON HARBOR  MOSUNNY   69  65  86 CALM      29.92R
6HR MIN TEMP:  66; 6HR MAX TEMP:  70;

BIG RAPIDS     MOSUNNY   66  66 100 NE3       29.97S
6HR MIN TEMP:  64; 6HR MAX TEMP:  68;

COLDWATER      PTSUNNY   67  67  99 CALM      29.94S
6HR MIN TEMP:  63; 6HR MAX TEMP:  67;

FREMONT        CLOUDY    69  69 100 E8        29.95S
HOLLAND        CLOUDY    68  65  90 E3        29.94R
6HR MIN TEMP:  63; 6HR MAX TEMP:  71;

GRAND RAPIDS   PTSUNNY   69  64  84 E3        29.96R
6HR MIN TEMP:  66; 6HR MAX TEMP:  70;

IONIA          FAIR      65  64  96 CALM      29.96R
6HR MIN TEMP:  61; 6HR MAX TEMP:  65;

KALAMAZOO      PTSUNNY   70  65  84 CALM      29.95R
6HR MIN TEMP:  66; 6HR MAX TEMP:  70;

LUDINGTON      SUNNY     68  62  80 NE7       29.95R
6HR MIN TEMP:  67; 6HR MAX TEMP:  69;

MARSHALL       CLOUDY    67  66  97 CALM      29.96R
6HR MIN TEMP:  62; 6HR MAX TEMP:  67;

MOUNT PLEASANT FOG       67  67  99 NE6       29.97S VSB 3/4
6HR MIN TEMP:  64; 6HR MAX TEMP:  67;

MUSKEGON       PTSUNNY   71  67  87 NE7       29.94R
6HR MIN TEMP:  67; 6HR MAX TEMP:  72;

SOUTH HAVEN    CLOUDY    68  67  96 CALM      29.93S
$$
MIZ016>042-281300-
NORTHERN LOWER MICHIGAN

CITY           SKY/WX    TMP DP  RH WIND       PRES   REMARKS
ALPENA         LGT RAIN  62  59  90 CALM      30.00R
6HR MIN TEMP:  62; 6HR MAX TEMP:  68; 6HR PCP:  0.01;

BEAVER ISLAND  PTSUNNY   60  59  94 CALM      30.01R
6HR MIN TEMP:  59; 6HR MAX TEMP:  65;

BELLAIRE       CLOUDY    63  55  75 CALM      30.00S
6HR MIN TEMP:  63; 6HR MAX TEMP:  70;

CADILLAC       CLOUDY    64  55  74 NE8       30.00R
CHARLEVOIX     LGT RAIN  63  58  84 CALM      30.03S
6HR MIN TEMP:  62; 6HR MAX TEMP:  69;

FRANKFORT      CLOUDY    66  56  71 NE8       29.98S
GAYLORD        CLOUDY    61  51  70 NE3       30.02R
6HR MIN TEMP:  60; 6HR MAX TEMP:  69; 6HR PCP: TRACE;

GRAYLING       RAIN      64  55  72 NE3       30.02R
6HR MIN TEMP:  64; 6HR MAX TEMP:  70;

HARBOR SPRINGS LGT RAIN  60  58  93 CALM      30.01S
HOUGHTON LAKE  CLOUDY    64  55  72 NE6       30.01R
6HR MIN TEMP:  63; 6HR MAX TEMP:  68;

MANISTEE       CLOUDY    68  57  68 E12       29.96R
OSCODA         CLOUDY    65  57  75 N9        29.97S
6HR MIN TEMP:  64; 6HR MAX TEMP:  67;

PELLSTON       LGT RAIN  60  56  86 N5        30.01S
6HR MIN TEMP:  60; 6HR MAX TEMP:  65; 6HR PCP:  0.05;

ROGERS CITY    LGT RAIN  62  59  89 W3        30.01S
TRAVERSE CITY  CLOUDY    67  55  65 NE9       29.98S
6HR MIN TEMP:  67; 6HR MAX TEMP:  74;

$$
MIZ007>008-015-281300-
EASTERN UPPER MICHIGAN

CITY           SKY/WX    TMP DP  RH WIND       PRES   REMARKS
KINROSS        CLOUDY    62  59  90 N6        30.01R
6HR MIN TEMP:  58; 6HR MAX TEMP:  62; 6HR PCP: TRACE;

MACKINAC ISLAN LGT RAIN  60  60 100 N3        30.00F
6HR MIN TEMP:  58; 6HR MAX TEMP:  64; 6HR PCP:  0.16;

NEWBERRY       PTSUNNY   57  57 100 N3        30.01S
S. S. MARIE    CLOUDY    65  56  72 VRB3      30.01R
6HR MIN TEMP:  62; 6HR MAX TEMP:  65; 6HR PCP: TRACE;

MUNISING         N/A     66  61  84 N8        30.02R
6HR MIN TEMP:  60; 6HR MAX TEMP:  66;

$$
MIZ004>006-011>014-085-281300-
CENTRAL UPPER MICHIGAN

CITY           SKY/WX    TMP DP  RH WIND       PRES   REMARKS
MANISTIQUE     CLOUDY    59  59 100 N5        30.01S
ESCANABA       CLOUDY    59  57  94 N3        30.01R
6HR MIN TEMP:  59; 6HR MAX TEMP:  61; 6HR PCP:  0.09;

MENOMINEE      HVY RAIN N/A N/A N/A NE8       30.02R
SAWYER-GWINN   SUNNY     59  55  88 N7        30.04S
$$
MIZ001>003-009>011-084-281300-
WESTERN UPPER MICHIGAN

CITY           SKY/WX    TMP DP  RH WIND       PRES   REMARKS
IRON MOUNTAIN  CLOUDY    60  56  86 CALM      30.03R
6HR MIN TEMP:  59; 6HR MAX TEMP:  62; 6HR PCP:  0.05;

HOUGHTON       SUNNY     61  52  72 E8        30.06R
6HR MIN TEMP:  54; 6HR MAX TEMP:  61;

COPPER HARBOR    N/A     62  55  77 VRB3      30.07R
6HR MIN TEMP:  58; 6HR MAX TEMP:  63;

IRONWOOD       CLOUDY    59  57  94 NE8       30.04F
6HR MIN TEMP:  57; 6HR MAX TEMP:  61;

$$

ABBREVIATIONS USED IN REMARKS
   TC - TEMPERATURE IN CELSIUS
  WCI - WIND CHILL INDEX
   HX - HEAT INDEX
  VSB - VISIBILITY





USA.gov is the U.S. government's official web portal to all federal, state and local government web resources and services.